Regional Weather Roundup
Issued by NWS

Home | Current Version | Previous Version | Text Only | Print | Product List | Glossary Off
Versions: 1 2 3 4 5 6 7 8 9 10 11 12 13 14 15 16 17 18 19 20 21 22 23 24 25 26 27 28 29 30 31 32 33 34 35 36 37 38 39 40 41 42 43 44 45 46 47 48 49 50

000
ASUS43 KOAX 240102
RWRNE

WEATHER ROUNDUP FOR NEBRASKA
NATIONAL WEATHER SERVICE OMAHA NE
800 PM CDT THU OCT 23 2014

NOTES: SATELLITE DATA IS BEING USED TO AUGMENT CLOUD COVER ABOVE
       12000 FEET.
       "FAIR" INDICATES FEW OR NO CLOUDS BELOW 12,000 FEET WITH NO
       SIGNIFICANT WEATHER AND/OR OBSTRUCTIONS TO VISIBILITY.

  * THESE STATIONS DO NOT REPORT WEATHER SUCH AS RAIN...SNOW OR FOG.

NEZ001>004-019>022-054>056-240200-
NEBRASKA PANHANDLE

CITY           SKY/WX    TMP DP  RH WIND       PRES   REMARKS
SCOTTSBLUFF    PTCLDY    58  34  40 SW3       30.00R
ALLIANCE       PTCLDY    51  32  48 SW9       29.98R
CHADRON        MOCLDY    53  39  59 SW3       29.93R
KIMBALL        PTCLDY    53  32  44 SW6       30.06R
SIDNEY         CLEAR     52  36  54 SW10      30.04S
$$

NEZ057>060-069>072-079>082-240200-
SOUTHWEST NEBRASKA

CITY           SKY/WX    TMP DP  RH WIND       PRES   REMARKS
NORTH PLATTE   PTCLDY    61  45  55 S8        29.99R
IMPERIAL       PTCLDY    61  37  41 S7        30.01S
LEXINGTON      MOCLDY    57  54  88 SE5       30.00S
MCCOOK         PTCLDY    64  54  69 VRB6G16   30.01S
OGALLALA       PTCLDY    58  37  45 CALM      30.00R
$$

NEZ005>010-023>029-035>040-094-240200-
NORTH CENTRAL NEBRASKA

CITY           SKY/WX    TMP DP  RH WIND       PRES   REMARKS
VALENTINE      MOCLDY    59  35  40 CALM      29.92R
AINSWORTH      CLOUDY    54  44  69 S8        29.94R
BROKEN BOW     CLOUDY    61  52  72 S9        29.98S
O`NEILL        CLOUDY    61  53  73 S9        29.95S
ORD            CLOUDY    59  54  83 S6        29.97S
THEDFORD       MOCLDY    61  38  43 S8        29.97R
$$

NEZ041-046>049-061>064-073>077-083>087-240200-
SOUTH CENTRAL NEBRASKA

CITY           SKY/WX    TMP DP  RH WIND       PRES   REMARKS
GRAND ISLAND   MOCLDY    57  54  89 S8        30.02S
AURORA         MOCLDY    56  55  95 CALM      30.03R
HASTINGS       MOCLDY    56  53  90 SW3       30.04R FOG
HEBRON         MOCLDY    57  54  88 CALM      30.03S
HOLDREGE       MOCLDY    54  52  94 CALM      30.02S FOG
KEARNEY *      MOCLDY    54  52  94 SE9       30.03S
YORK           CLOUDY    57  55  94 SW6       30.03R
$$

NEZ011>018-030>034-042>045-240200-
NORTHEAST NEBRASKA

CITY           SKY/WX    TMP DP  RH WIND       PRES   REMARKS
NORFOLK        PTCLDY    59  51  75 S7        29.99S
ALBION         CLOUDY    57  52  84 S7        30.00S
BLAIR          CLEAR     59  49  69 S5        30.02R
COLUMBUS *     MOCLDY    61  48  63 S6        30.03R
FREMONT        CLEAR     59  46  62 SE5       30.02S
TEKAMAH        CLEAR     55  49  80 SW6       30.01R
WAYNE          PTCLDY    57  46  68 S6        30.00R
$$

NEZ050>053-065>068-078-088>093-240200-
SOUTHEAST NEBRASKA

CITY           SKY/WX    TMP DP  RH WIND       PRES   REMARKS
LINCOLN        PTCLDY    58  51  78 S3        30.03R
OMAHA EPPLEY   PTCLDY    60  50  69 SE3       30.02R
BEATRICE       PTCLDY    60  52  74 S3        30.03S
FALLS CITY     CLEAR     63  51  65 S6        30.04R
NEBRASKA CITY  CLEAR     64  43  46 CALM      30.04R
PLATTSMOUTH    CLEAR     62  44  51 SE5       30.03R
$$

NEZ044-045-051>053-067-240200-
OMAHA AREA

CITY           SKY/WX    TMP DP  RH WIND       PRES   REMARKS
OMAHA EPPLEY   PTCLDY    60  50  69 SE3       30.02R
BLAIR          CLEAR     59  49  69 S5        30.02R
FREMONT        CLEAR     59  46  62 SE5       30.02S
OFFUTT AFB     CLEAR     53  53  99 CALM      30.02R
PLATTSMOUTH    CLEAR     62  44  51 SE5       30.03R
WAHOO          FAIR      55  46  69 S3        30.02R
$$



USA.gov is the U.S. government's official web portal to all federal, state and local government web resources and services.